Regional Weather Roundup
Issued by NWS

Home | Current Version | Previous Version | Text Only | Print | Product List | Glossary Off
Versions: 1 2 3 4 5 6 7 8 9 10 11 12 13 14 15 16 17 18 19 20 21 22 23 24 25 26 27 28 29 30 31 32 33 34 35 36 37 38 39 40 41 42 43 44 45 46 47 48 49 50

000
ASUS43 KLMK 232102
RWRKY
KENTUCKY REGIONAL WEATHER ROUNDUP
NATIONAL WEATHER SERVICE LOUISVILLE KY
400 PM EST THU NOV 23 2017

NOTE "FAIR" INDICATES FEW OR NO CLOUDS BELOW 12,000 FEET
WITH NO SIGNIFICANT WEATHER AND/OR OBSTRUCTIONS TO VISIBILITY.

KYZ001>023-026-027-061>063-070>075-232200-
WESTERN AND SOUTH CENTRAL KENTUCKY

CITY           SKY/WX    TMP DP  RH WIND       PRES   REMARKS
PADUCAH        SUNNY     52  21  29 SW8       30.02F
HENDERSON      SUNNY     50  24  36 S7        30.03F
OWENSBORO      SUNNY     49  25  39 S7        30.03F
HOPKINSVILLE   SUNNY     51  19  27 SW3       30.04F
BOWLING GREEN  SUNNY     50  24  36 CALM      30.05F
GLASGOW        NOT AVBL
$$

KYZ024-025-028>034-038-045-046-053-232200-
NORTH CENTRAL KENTUCKY

CITY           SKY/WX    TMP DP  RH WIND       PRES   REMARKS
LOUISVILLE/SDF MOSUNNY   49  25  39 SE5       30.04F
LOUISVILLE/LOU SUNNY     48  26  42 VRB6      30.05F
FORT KNOX      SUNNY     48  23  37 CALM      30.02F
$$

KYZ035>037-039>044-047>052-055>060-089>105-232200-
NORTHEAST KENTUCKY

CITY           SKY/WX    TMP DP  RH WIND       PRES   REMARKS
LEXINGTON      SUNNY     47  22  37 W3        30.04F
COVINGTON      MOSUNNY   45  27  49 S6        30.02F
FRANKFORT      SUNNY     48  22  35 CALM      30.03F
$$

KYZ054-064>069-076>088-106>120-232200-
SOUTHEAST KENTUCKY

CITY           SKY/WX    TMP DP  RH WIND       PRES   REMARKS
JACKSON        SUNNY     49  20  31 VRB3      30.03S
LONDON         SUNNY     51  17  26 CALM      30.03S
SOMERSET       SUNNY     48  21  34 CALM      30.05S
MIDDLESBORO    SUNNY     54  29  37 CALM      30.02S
MONTICELLO     CLEAR     50  25  37 N17       30.05S
$$




USA.gov is the U.S. government's official web portal to all federal, state and local government web resources and services.